TIANMU-1 06

Last updated on Fri Sep 11 2026 00:02:39 GMT+0000 (Coordinated Universal Time)

1 55976U 23039D 26253.57696878 .00012874 00000+0 23095-3 0 9996 2 55976 97.5242 71.3701 0003456 135.7656 224.3872 15.50051950194062
UTC large
Height (km)
Speed (km/s)
/
Latitude / Longitude
Inclination (degrees)
Orbital Period (minutes)
Azimuth
Elevation
Range (km)
Doppler Factor

Next 0 passes for location: London (51.5072 / 0.1276)

No passes found over London.
TIANMU-1 06